Location: *
(55.6049°S, 142.1985°W)
Time: 23:21:13
(UTC+00:00)

Cosmos 1812 Rocket - Pass Details

Date: 12 May 2021
Orbit: 604 x 633 km, 82.5° (Epoch: 23 June)

Event Time Altitude Azimuth Distance (km) Brightness Sun altitude
Rises 15:27:45 0° 351° (N) 2,870 7.0 -14.7°
Reaches altitude 10° 15:29:57 10° 351° (N) 1,974 6.2 -14.4°
Maximum altitude 15:34:20 86° 78° (ENE) 630 3.6 -13.8°
Drops below altitude 10° 15:38:48 10° 167° (SSE) 2,011 6.2 -13.1°
Sets 15:41:03 0° 167° (SSE) 2,928 7.0 -12.8°
